This demonstration page uses our WeatherBlox Daily Observations layout. Learn more.

Left ArrowRight Arrow

38.20091, -84.87328

Hourly Observations for October 9, 2021

Temp ( °F °C ) Dew Point ( °F °C ) Humidity (%) Winds ( mph kmh ) Pressure ( in mb ) Visibility ( mi km ) Precip ( " mm )
12:53 am 00:53 Clear 62 16.7 61 16.1 96 96 N N/A 30.02 1017 10 16 N/A
1:53 am 01:53 Clear 61 16.1 60 15.6 97 97 N N/A 30.02 1017 9 14 N/A
2:53 am 02:53 Clear 61 16.1 59 15 93 93 N N/A 30.02 1017 10 16 N/A
3:50 am 03:50 Partly Cloudy with Mist and Fog 61 16 57 14 88 88 N N/A 30.02 1017 6 10 N/A
3:53 am 03:53 Partly Cloudy with Mist and Fog 59 15 58 14.4 96 96 N N/A 30.01 1016 6 10 N/A
4:53 am 04:53 Clear 59 15 58 14.4 96 96 N N/A 30.01 1016 8 13 N/A
5:53 am 05:53 Mostly Clear 58 14.4 57 13.9 97 97 N N/A 30.01 1016 8 13 N/A
6:04 am 06:04 Mostly Clear with Mist and Fog 58 14.4 57 13.9 97 97 N N/A 30.02 1016 2 3 N/A
6:12 am 06:12 Mostly Clear 58 14.4 57 13.9 97 97 SE 3 6 30.02 1016 10 16 N/A
6:53 am 06:53 Clear with Mist and Fog 59 15 58 14.4 96 96 N N/A 30.01 1016 3 5 N/A
6:56 am 06:56 Clear with Mist and Fog 59 15 58 14.4 96 96 N N/A 30.03 1017 2 3 N/A
7:04 am 07:04 Clear with Mist and Fog 59 15 58 14.4 96 96 N N/A 30.03 1017 3 4 N/A
7:18 am 07:18 Clear with Mist and Fog 59 15 58 14.4 96 96 N N/A 30.03 1017 1 2 N/A
7:29 am 07:29 Clear with Fog 58 14.4 57 13.9 97 97 N N/A 30.03 1017 1 1 N/A
7:36 am 07:36 Clear with Fog 57 13.9 57 13.9 100 100 N N/A 30.03 1017 0 0 N/A
7:42 am 07:42 Clear with Mist and Fog 57 13.9 56 13.3 96 96 N N/A 30.03 1017 1 2 N/A
7:46 am 07:46 Sunny with Mist and Fog 57 13.9 56 13.3 96 96 N N/A 30.03 1017 2 3 N/A
7:53 am 07:53 Sunny with Mist and Fog 58 14.4 57 13.9 97 97 N N/A 30.02 1017 3 5 N/A
8:53 am 08:53 Sunny with Mist and Fog 63 17.2 62 16.7 97 97 SE 3 6 30.03 1017 6 10 N/A
9:53 am 09:53 Sunny 68 20 64 17.8 87 87 SSE 3 6 30.03 1017 10 16 N/A
10:53 am 10:53 Sunny 73 22.8 65 18.3 76 76 SSE 6 9 30.03 1017 10 16 N/A
11:53 am 11:53 Sunny 77 25 66 18.9 69 69 S 5 7 30.02 1017 10 16 N/A
12:53 pm 12:53 Sunny 79 26.1 65 18.3 62 62 VRB 6 9 30.01 1016 10 16 N/A
1:53 pm 13:53 Partly Cloudy 81 27.2 65 18.3 58 58 SSW 9 15 29.99 1016 10 16 N/A
2:53 pm 14:53 Mostly Cloudy 81 27.2 65 18.3 58 58 S 10 17 29.96 1015 7 11 N/A
3:53 pm 15:53 Mostly Cloudy 80 26.7 65 18.3 60 60 SE 7 11 29.96 1014 10 16 N/A
4:53 pm 16:53 Mostly Sunny 81 27.2 64 17.8 57 57 SSE 8 13 29.94 1014 10 16 N/A
5:53 pm 17:53 Mostly Cloudy 79 26.1 65 18.3 62 62 SSE 7 11 29.95 1014 10 16 N/A
6:53 pm 18:53 Partly Cloudy 77 25 66 18.9 69 69 SSE 6 9 29.95 1014 10 16 N/A
7:53 pm 19:53 Clear 75 23.9 65 18.3 71 71 SSE 6 9 29.96 1015 10 16 N/A
8:53 pm 20:53 Clear 72 22.2 65 18.3 79 79 SSE 5 7 29.96 1015 10 16 N/A
9:53 pm 21:53 Clear 72 22.2 65 18.3 79 79 SSE 6 9 29.96 1015 10 16 N/A
10:53 pm 22:53 Clear 71 21.7 65 18.3 81 81 SSE 6 9 29.96 1015 10 16 N/A
11:53 pm 23:53 Clear 70 21.1 65 18.3 84 84 SSE 6 9 29.94 1014 10 16 N/A

Powered by AerisWeather